Location: Gajan
(43.0218°N, 1.1244°E)
Time: 16:00:34
(UTC+00:00)

Cosmos 2082 - Pass Details

Date: 22 April 2021
Orbit: 834 x 855 km, 71.0° (Epoch: 13 May)

Event Time Altitude Azimuth Distance (km) Brightness Sun altitude
Exits shadow 20:37:19 22° 172° (S) 1,726 4.9 -18.6°
Maximum altitude 20:40:37 49° 108° (ESE) 1,069 3.8 -19.1°
Drops below altitude 10° 20:46:00 10° 35° (NE) 2,454 6.2 -19.8°
Sets 20:48:31 0° 30° (NNE) 3,394 7.0 -20.2°
